Location: Codford Saint Mary
(51.1558°N, 2.0389°W)
Time: 04:30:10
(UTC+00:00)

Daily predictions for brighter satellites

Satellite Brightness Start Highest point End
(mag) Time Altitude Azimuth Time Altitude Azimuth Time Altitude Azimuth
Cosmos 2333 Rocket 3.4 00:00:57 10° NNW 00:06:09 36° NE 00:07:04 34° ENE
Cosmos 2237 Rocket 4.5 00:07:38 10° NNW 00:11:48 20° NE 00:15:58 10° E
ATLAS 5 CENTAUR R/B 4.3 00:10:32 10° NW 00:14:16 21° N 00:18:27 10° NE
Cosmos 2061 Rocket 4.1 00:11:17 10° NNW 00:16:57 72° NW 00:16:57 72° NW
Cosmos 1607 4.3 00:22:26 57° WNW 00:22:51 58° NW 00:29:03 10° NE
Cosmos 2082 Rocket 3.6 00:27:35 28° WNW 00:28:53 31° NW 00:33:54 10° NNE
SL-16 R/B 3.7 00:31:32 30° E 00:33:23 36° ENE 00:38:58 10° N
Cosmos 839 Rocket 4.2 00:37:10 68° E 00:37:10 68° E 00:43:28 10° NE
Cosmos 2233 Rocket 4.0 00:38:08 10° N 00:44:02 79° N 00:44:02 79° N
Cosmos 724 4.5 00:47:06 66° NNE 00:47:06 66° NNE 00:52:08 10° NE
Cosmos 2219 Rocket 2.6 00:43:40 10° NNW 00:49:01 58° NE 00:49:01 58° NE
Helios 1B rocket 4.3 00:46:35 10° N 00:48:41 29° N 00:48:41 29° N
Cosmos 1725 Rocket 4.4 00:45:44 10° NNW 00:51:14 54° WNW 00:51:14 54° WNW
USA 234 3.9 00:46:07 10° ENE 00:52:26 54° N 00:58:46 10° WNW
Meteor 1-26 Rocket 4.4 00:55:35 71° NNE 00:55:35 71° NNE 01:00:43 10° NNE
Meteor 1-14 Rocket 4.4 00:53:47 10° NNW 00:59:08 71° NNW 00:59:08 71° NNW
Cosmos 1680 Rocket 4.1 00:56:40 10° NNW 01:00:48 55° N 01:00:48 55° N
Cosmos 2123 Rocket 4.2 01:04:21 58° WNW 01:04:21 58° WNW 01:10:13 10° N
ADEOS II 4.5 01:04:25 10° ENE 01:06:43 13° E 01:08:12 12° ESE
Cosmos 2322 4.2 01:03:12 10° NNW 01:07:30 52° NW 01:07:30 52° NW
Meteor 2-20 Rocket 4.4 01:10:02 84° NE 01:10:02 84° NE 01:16:04 10° N
COSMOS 2428 2.8 01:04:46 10° NNW 01:10:03 71° NNE 01:10:03 71° NNE
Cosmos 1464 Rocket 4.2 01:06:29 10° N 01:12:34 61° ENE 01:13:07 59° E
SJ 16-02 3.0 01:14:58 29° ENE 01:14:58 29° ENE 01:17:34 10° NE
Resurs 1-4 Rocket 3.1 01:14:12 10° NNE 01:18:58 37° E 01:18:58 37° E
Cosmos 1447 Rocket 4.4 01:20:09 84° W 01:20:10 84° W 01:26:35 10° N
NOSS 0 Rocket 4.2 01:17:07 10° NNW 01:23:16 64° NE 01:24:55 47° ESE
Cosmos 2228 Rocket 4.2 01:27:29 41° NNW 01:27:29 41° NNW 01:30:39 10° N
SL-16 R/B 4.2 01:28:11 10° NNW 01:32:58 27° NE 01:37:43 10° E
Cosmos 2360 Rocket 3.9 01:29:42 10° NW 01:32:00 21° WNW 01:32:00 21° WNW
Cosmos 2322 Rocket 4.5 01:35:43 10° WNW 01:36:10 11° WNW 01:36:10 11° WNW
SL-19 R/B 4.3 01:33:10 10° NNE 01:38:45 69° WNW 01:38:45 69° WNW
Cosmos 1733 Rocket 3.9 01:34:33 10° N 01:38:03 48° NNE 01:38:03 48° NNE
Cosmos 1536 4.3 01:35:23 10° N 01:38:08 35° NNE 01:38:08 35° NNE
Lacrosse 5 rocket 3.2 01:41:23 25° ENE 01:41:23 25° ENE 01:43:10 10° ENE
SL-19 R/B 4.4 01:43:14 65° WNW 01:43:14 65° WNW 01:48:20 10° NNW
Cosmos 1513 Rocket 4.3 01:36:58 10° N 01:43:22 84° W 01:43:47 78° SSW
NPP 4.1 01:38:29 10° NNE 01:43:46 52° E 01:44:03 51° ESE
MOZ.5/SAFIR/RUBIN 5/SL-8 4.5 01:46:27 49° NW 01:46:27 49° NW 01:50:00 10° NNW
CZ-2D R/B 2.4 01:40:04 10° NNE 01:45:31 60° ESE 01:45:47 59° ESE
Cosmos 1833 4.4 01:48:50 59° WNW 01:49:05 59° NW 01:54:47 10° NNE
Cosmos 44 Rocket 4.0 01:50:48 43° NNW 01:50:48 43° NNW 01:55:07 10° NNE
Cosmos 2333 Rocket 3.0 01:45:10 10° NW 01:49:02 40° WNW 01:49:02 40° WNW
ERS-2 3.8 01:53:19 33° NE 01:53:19 33° NE 01:56:06 10° N
CZ-4B R/B 3.6 01:51:28 10° NNE 01:55:59 64° E 01:55:59 64° E
Cosmos 1937 Rocket 3.8 01:56:46 57° ESE 01:56:49 57° ESE 02:01:54 10° NNE
Cosmos 2237 Rocket 2.3 01:51:13 10° NNW 01:56:55 71° ENE 01:58:51 42° SE
Meteor 1-10 Rocket 4.0 01:57:45 83° WSW 01:57:51 84° WNW 02:03:28 10° NNE
SL-08 R/B 4.4 01:58:01 28° ESE 02:00:05 43° ENE 02:04:46 10° N
ATLAS 5 CENTAUR R/B 3.9 01:55:41 10° NW 02:00:25 32° NNE 02:05:49 10° E
Tsikada Rocket 4.5 02:00:24 41° SE 02:02:23 57° E 02:08:39 10° NNE
Cosmos 2034 Rocket 3.9 01:56:18 10° N 02:02:43 84° W 02:03:51 63° S
Cosmos 2285 Rocket 3.9 02:05:00 65° SW 02:05:57 78° WNW 02:12:25 10° NNE
Meteor 1-27 Rocket 3.7 02:07:19 65° SSE 02:08:06 77° E 02:13:56 10° NNE
Cosmos 1898 Rocket 3.3 02:11:46 84° WSW 02:11:53 85° WNW 02:17:08 10° NNE
Cosmos 1666 4.1 02:09:09 10° NNW 02:11:19 33° NNW 02:11:19 33° NNW
STARLINK-61 4.5 02:15:54 43° ENE 02:15:54 43° ENE 02:18:37 10° ENE
Cosmos 990 Rocket 3.8 02:15:06 78° W 02:15:15 79° WNW 02:20:27 10° NNE
SL-16 R/B 2.6 02:16:37 53° WSW 02:16:49 53° W 02:22:55 10° NNW
Cosmos 1743 3.8 02:14:06 10° N 02:17:50 41° ENE 02:18:11 40° E
STARLINK-1021 4.4 02:20:02 45° E 02:20:02 45° E 02:23:04 10° ENE
Cosmos 2297 Rocket 3.2 02:18:26 32° SE 02:20:00 39° ESE 02:25:13 10° NE
USA 238 DEB 4.5 02:18:58 32° SSE 02:21:04 39° ESE 02:27:22 10° NE
BREEZE-M DEB (TANK) 3.7 02:22:14 45° ESE 02:22:14 45° ESE 02:26:14 10° E
STARLINK-1019 4.2 02:24:48 51° E 02:24:48 51° E 02:28:02 10° ENE
Meteor 1-11 Rocket 4.0 02:18:50 10° NNW 02:24:37 53° W 02:24:51 53° WSW
STARLINK-81 4.2 02:26:09 49° E 02:26:09 49° E 02:29:14 10° ENE
STARLINK-1023 4.0 02:27:18 58° E 02:27:18 58° E 02:30:48 10° ENE
STARLINK-54 4.1 02:27:54 53° E 02:27:54 53° E 02:31:05 10° ENE
Cosmos 405 3.8 02:28:56 49° NE 02:28:56 49° NE 02:31:42 10° NNE
AQUA 3.6 02:23:25 10° NNE 02:28:13 85° WNW 02:28:31 79° SW
STARLINK-77 4.1 02:29:19 53° E 02:29:19 53° E 02:32:31 10° ENE
STARLINK-1012 4.0 02:29:35 57° E 02:29:35 57° E 02:33:03 10° ENE
Cosmos 2219 3.6 02:27:51 45° SSE 02:29:18 58° ESE 02:34:57 10° NE
STARLINK-25 4.0 02:30:54 55° E 02:30:54 55° E 02:34:11 10° ENE
TIMED 4.4 02:26:12 10° NNW 02:30:26 82° NNW 02:30:26 82° NNW
Cosmos 1707 Rocket 4.5 02:31:58 37° NW 02:31:58 37° NW 02:35:38 10° N
STARLINK-71 3.9 02:32:41 60° E 02:32:41 60° E 02:36:04 10° ENE
Cosmos 2219 Rocket 3.6 02:28:08 10° NW 02:30:42 22° WNW 02:30:42 22° WNW
STARLINK-79 3.9 02:34:05 60° E 02:34:05 60° E 02:37:30 10° ENE
USA 234 3.5 02:28:35 10° E 02:35:05 69° NNE 02:41:35 10° WNW
STARLINK-78 3.8 02:35:41 63° E 02:35:41 63° E 02:39:10 10° ENE
Cosmos 1862 Rocket 3.6 02:36:31 68° WNW 02:36:31 68° WNW 02:40:52 10° N
STARLINK-57 3.7 02:37:22 67° E 02:37:22 67° E 02:40:56 10° ENE
Meteor 1-28 Rocket 4.3 02:36:21 31° ESE 02:37:38 43° ENE 02:41:13 10° N
STARLINK-48 3.7 02:38:02 65° N 02:38:02 65° N 02:41:53 10° E
STARLINK-49 3.7 02:38:53 68° E 02:38:53 68° E 02:42:29 10° ENE
STARLINK-1026 3.6 02:39:08 73° ESE 02:39:08 73° ESE 02:42:59 10° ENE
STARLINK-27 3.6 02:40:27 71° E 02:40:27 71° E 02:44:08 10° ENE
STARLINK-74 3.6 02:42:03 74° E 02:42:03 74° E 02:45:48 10° ENE
IRS-1D 3.4 02:37:05 10° NNE 02:42:09 89° W 02:43:17 56° SSW
STARLINK-39 3.5 02:43:38 77° ESE 02:43:38 77° ESE 02:47:26 10° ENE
STARLINK-1013 3.5 02:43:55 81° SE 02:43:55 81° SE 02:47:58 10° ENE
NOSS 3-2 (A) 4.0 02:42:50 34° S 02:44:55 48° ESE 02:51:11 10° NE
STARLINK-31 3.5 02:45:15 80° ESE 02:45:15 80° ESE 02:49:08 10° ENE
STARLINK-1007 3.5 02:46:18 84° S 02:46:21 85° SSE 02:50:33 10° ENE
Cosmos 2227 Rocket 2.7 02:44:21 34° SSE 02:46:29 53° ESE 02:51:59 10° NE
STARLINK-69 3.4 02:46:59 86° E 02:46:59 86° E 02:50:57 10° ENE
ADEOS II 2.1 02:42:02 10° NNE 02:47:19 76° ESE 02:49:08 42° S
STARLINK-41 3.9 02:48:32 46° NE 02:48:32 46° NE 02:51:00 10° E
STARLINK-21 3.4 02:48:25 86° SE 02:48:25 86° SE 02:52:26 10° ENE
STARLINK-1009 3.4 02:48:43 84° SSW 02:48:48 85° SSE 02:52:58 10° ENE
CENTAUR R/B 3.9 02:46:11 19° SSE 02:49:30 31° ESE 02:55:24 10° NE
STARLINK-45 3.4 02:50:10 87° W 02:50:14 89° NNW 02:54:18 10° ENE
Cosmos 1812 4.3 02:51:03 24° NW 02:51:03 24° NW 02:53:33 10° NNW
Cosmos 1782 Rocket 3.7 02:46:26 10° N 02:50:47 72° ENE 02:52:27 36° SSE
NOSS 3-3 (A) 4.4 02:43:24 10° NW 02:50:47 79° SW 02:59:02 10° SE
NOSS 3-3 (C) 4.4 02:43:30 10° NW 02:50:53 79° SW 02:59:08 10° SE
STARLINK-70 3.4 02:51:42 84° W 02:51:49 89° N 02:55:52 10° ENE
SJ 16-02 2.5 02:51:57 30° WNW 02:52:10 30° NW 02:56:05 10° N
Cosmos 2150 Rocket 4.4 02:50:33 37° S 02:52:38 63° ESE 02:58:04 10° NNE
STARLINK-76 3.4 02:53:13 82° WSW 02:53:22 90° NNW 02:57:26 10° ENE
Cosmos 2298 Rocket 4.2 02:51:31 40° S 02:53:23 68° ESE 02:58:42 10° NNE
STARLINK-1015 3.4 02:53:28 78° WSW 02:53:44 88° S 02:57:54 10° ENE
STARLINK-42 3.6 02:54:28 55° NNE 02:54:28 55° NNE 02:57:19 10° E
COSMOS 2428 4.4 02:49:57 10° NW 02:52:02 18° WNW 02:52:02 18° WNW
CZ-4C R/B 3.2 02:54:40 58° E 02:54:44 58° ENE 02:57:51 10° N
STARLINK-80 3.6 02:54:27 59° NW 02:54:59 69° N 02:58:48 10° E
STARLINK-23 3.4 02:54:48 79° WSW 02:55:02 89° N 02:59:05 10° ENE
STARLINK-1027 4.3 02:55:30 41° SSE 02:55:40 42° SSE 02:59:42 10° ENE
STARLINK-1033 4.3 02:56:08 40° SSE 02:56:13 40° SSE 03:00:07 10° ENE
Okean 1-7 3.3 02:55:06 42° SSE 02:56:28 66° E 03:00:51 10° NNE
STARLINK-32 3.4 02:56:22 76° W 02:56:40 88° N 03:00:43 10° ENE
Cosmos 2242 Rocket 3.6 02:57:06 58° SW 02:57:54 73° WNW 03:02:30 10° N
STARLINK-40 3.4 02:57:57 73° W 02:58:19 87° NNW 03:02:22 10° ENE
STARLINK-64 3.4 02:58:19 63° NNW 02:58:31 65° N 03:02:04 10° ENE
STARLINK-1016 3.5 02:58:16 69° WSW 02:58:45 88° NNW 03:02:55 10° ENE
Resurs 1-4 Rocket 2.7 02:54:05 10° N 02:58:57 39° WNW 03:00:03 35° W
Cosmos 1980 4.0 02:54:15 10° NW 02:59:35 42° WSW 02:59:50 42° WSW
STARLINK-44 3.4 02:59:33 70° W 02:59:59 86° NNW 03:04:02 10° ENE
Cosmos 468 4.4 02:55:23 10° NNW 03:00:44 74° WSW 03:04:36 19° SSE
IDEFIX/ARIANE 42P 4.0 02:56:03 10° NNE 03:00:47 34° E 03:05:31 10° SSE
Cosmos 1703 Rocket 3.6 03:00:17 47° S 03:01:33 84° E 03:06:03 10° NNE
STARLINK-37 3.4 03:01:15 66° W 03:01:46 84° NNW 03:05:49 10° ENE
STARLINK-36 3.5 03:02:44 65° W 03:03:18 84° NNW 03:07:21 10° ENE
STARLINK-1031 4.1 03:02:55 46° S 03:03:21 48° SSE 03:07:27 10° ENE
STARLINK-1008 3.5 03:03:03 61° W 03:03:44 86° NNW 03:07:54 10° ENE
BREEZE-M DEB (TANK) 4.2 03:05:30 16° SE 03:05:30 16° SE 03:06:48 10° ESE
STARLINK-68 3.5 03:04:28 60° W 03:05:08 81° NNW 03:09:12 10° ENE
STARLINK-1024 4.1 03:05:41 43° SSE 03:06:07 45° SSE 03:10:06 10° ENE
STARLINK-63 3.5 03:05:59 58° W 03:06:43 81° NNW 03:10:45 10° ENE
STARLINK-35 3.5 03:07:30 57° W 03:08:15 82° NNW 03:12:19 10° ENE
ARIANE 5 R/B 2.6 03:03:27 10° NNE 03:08:42 81° ESE 03:11:22 30° S
BREEZE-M DEB (TANK) 3.5 03:02:16 10° WNW 03:09:03 41° SW 03:12:46 10° SSE
STARLINK-51 3.5 03:09:05 54° W 03:09:55 81° NNW 03:13:58 10° ENE
Spot 4 Rocket 4.3 03:05:13 10° NNE 03:10:22 64° ESE 03:13:36 23° S
STARLINK-1035 4.0 03:10:27 44° S 03:11:04 48° SSE 03:15:04 10° ENE
CZ-4B R/B 3.4 03:08:05 10° SE 03:11:12 31° ENE 03:14:19 10° N
STARLINK-30 3.5 03:10:40 52° W 03:11:34 80° NNW 03:15:37 10° ENE
H-2A R/B 1.9 03:11:48 47° SSW 03:12:48 63° WSW 03:16:55 10° NNW
STARLINK-72 3.5 03:12:17 50° W 03:13:15 79° NNW 03:17:18 10° ENE
Cosmos 967 Rocket 4.5 03:06:59 10° NW 03:13:31 90° NE 03:19:57 10° SE
STARLINK-1025 3.6 03:12:37 48° W 03:13:43 81° NNW 03:17:52 10° ENE
STARLINK-43 3.1 03:13:52 65° WSW 03:14:13 73° SSW 03:17:54 10° ESE
STARLINK-50 3.5 03:13:50 48° W 03:14:53 78° NNW 03:18:55 10° ENE
IRS-1C 4.1 03:09:35 10° NNE 03:14:57 73° WNW 03:17:19 34° SSW
STARLINK-1032 4.0 03:15:15 44° S 03:16:02 51° SSE 03:20:04 10° ENE
Cosmos 1908 Rocket 4.1 03:12:34 10° NNW 03:16:37 38° W 03:16:39 38° W
STARLINK-59 3.6 03:15:31 46° W 03:16:39 77° NNW 03:20:42 10° ENE
NOSS 3-2 (C) 4.0 03:13:20 24° S 03:16:40 51° ESE 03:23:01 10° NE
SAR-Lupe-1 4.5 03:14:18 13° SSE 03:17:22 63° ENE 03:20:57 10° N
SL-16 R/B 2.1 03:12:02 10° NNW 03:17:42 78° WSW 03:23:22 10° SSE
STARLINK-56 3.6 03:17:01 44° W 03:18:11 77° NNW 03:22:14 10° ENE
STARLINK-1017 3.6 03:17:24 43° W 03:18:41 79° NNW 03:22:51 10° ENE
Lacrosse 5 rocket 2.4 03:17:01 24° WNW 03:18:44 37° N 03:22:30 10° ENE
Cosmos 389 Rocket 3.7 03:17:04 20° SSE 03:19:04 39° E 03:22:24 10° NNE
STARLINK-26 3.2 03:18:23 43° WNW 03:19:23 74° NNE 03:22:51 10° E
STARLINK-73 3.6 03:18:37 43° W 03:19:51 76° NNW 03:23:54 10° ENE
STARLINK 1040 3.0 03:20:14 58° N 03:20:14 58° N 03:22:56 10° E
STARLINK-1011 3.9 03:20:02 43° SSW 03:21:00 54° SSE 03:25:04 10° ENE
STARLINK-55 3.2 03:20:32 46° NW 03:21:16 65° N 03:24:28 10° E
STARLINK-38 3.6 03:20:12 41° W 03:21:31 76° NNW 03:25:34 10° ENE
STARLINK-65 3.6 03:21:48 39° W 03:23:11 75° NNW 03:27:14 10° ENE
Cosmos 2082 4.1 03:20:11 22° S 03:23:50 62° ESE 03:29:30 10° NE
STARLINK-53 3.6 03:23:27 37° W 03:24:55 74° N 03:28:58 10° ENE
CZ-2D R/B 3.4 03:20:39 10° N 03:25:14 28° WNW 03:27:07 23° W
STARLINK-28 3.2 03:24:21 42° WNW 03:25:15 68° N 03:28:27 10° E
STARLINK-1014 3.6 03:24:24 37° W 03:25:54 76° N 03:29:58 10° ENE
STARLINK-1036 3.8 03:24:50 41° SSW 03:26:00 57° SSE 03:30:04 10° ENE
ERS-2 4.0 03:27:55 17° WNW 03:27:55 17° WNW 03:29:20 10° NW
STARLINK-1044 3.8 03:29:37 38° SW 03:30:58 61° SSE 03:35:03 10° ENE
STARLINK-33 3.2 03:30:17 35° WNW 03:31:27 67° N 03:34:40 10° E
Cosmos 1634 Rocket 4.3 03:25:54 10° NNW 03:31:41 43° W 03:34:56 24° SW
STARLINK-1048 3.7 03:31:43 31° W 03:33:37 73° N 03:37:47 10° ENE
Okean 3 3.9 03:30:21 15° S 03:33:41 59° E 03:37:49 10° NNE
STARLINK-24 3.7 03:33:23 30° W 03:35:16 70° N 03:39:18 10° ENE
STARLINK-1047 3.7 03:34:23 36° SW 03:35:54 64° SSE 03:40:01 10° ENE
Meteor 1-12 Rocket 4.5 03:30:13 10° N 03:36:14 78° ENE 03:42:07 10° SSE
Cosmos 1515 3.6 03:34:47 30° SSW 03:36:33 83° W 03:40:23 10° N
STARLINK-1037 3.7 03:35:01 35° SW 03:36:33 65° SSE 03:40:40 10° ENE
STARLINK-66 3.1 03:35:12 31° WNW 03:36:35 70° NNE 03:39:48 10° E
Cosmos 372 Rocket 4.3 03:34:50 29° WSW 03:37:17 53° WNW 03:42:25 10° NNE
SL-08 R/B 4.2 03:36:58 28° WSW 03:38:01 31° W 03:42:25 10° NNW
STARLINK-58 3.3 03:37:09 30° WNW 03:38:30 60° N 03:41:40 10° E
STARLINK-1049 3.7 03:36:31 28° W 03:38:37 72° N 03:42:47 10° ENE
Cosmos 1544 3.1 03:35:44 10° NNW 03:39:20 57° W 03:41:05 27° SSW
Cosmos 2237 Rocket 3.3 03:36:05 10° NW 03:40:28 23° WSW 03:40:36 23° WSW
Cosmos 1603 4.5 03:35:01 10° NNW 03:40:32 55° NE 03:46:03 10° SE
USA 267 3.5 03:35:03 10° ENE 03:41:32 62° SE 03:46:14 20° SW
Cosmos 1900 4.2 03:39:26 27° SW 03:42:06 88° NW 03:47:02 10° NE
Okean 1 3.8 03:41:43 32° WSW 03:42:54 41° WNW 03:46:42 10° N
STARLINK-1051 3.8 03:41:19 25° W 03:43:38 71° N 03:47:47 10° ENE
Cosmos 1300 Rocket 3.5 03:39:18 10° N 03:43:39 86° E 03:47:58 10° S
Cosmos 494 Rocket 4.0 03:38:30 10° NNW 03:43:41 59° WSW 03:48:51 10° S
SeaSat 1 3.4 03:39:49 10° SE 03:44:34 50° NE 03:49:21 10° NNW
ATLAS 5 CENTAUR R/B 2.3 03:40:08 10° NW 03:45:42 89° NE 03:52:14 10° SE
STARLINK-1059 3.6 03:43:57 30° SW 03:45:51 71° SSE 03:49:59 10° ENE
STARLINK-1010 3.9 03:43:25 22° W 03:46:02 69° N 03:50:16 10° E
Meteor 1-19 Rocket 4.1 03:42:03 18° SSW 03:46:14 74° WNW 03:51:45 10° N
Cosmos 1818 3.5 03:41:14 10° NW 03:46:39 64° SW 03:52:00 10° SSE
ATLAS 3B R/B 3.6 03:40:43 10° S 03:46:54 43° ESE 03:53:06 10° NE
STARLINK-75 3.1 03:45:19 24° WNW 03:47:06 72° NNE 03:50:19 10° E
Cosmos 2221 Rocket 3.6 03:45:25 14° S 03:49:11 87° E 03:53:38 10° N
STARLINK-1057 3.6 03:48:44 28° WSW 03:50:50 74° SSE 03:54:58 10° ENE
Cosmos 1743 4.2 03:50:29 10° NW 03:53:14 20° W 03:53:14 20° W
STARLINK-1028 3.8 03:50:51 20° W 03:53:35 69° N 03:57:44 10° ENE
STARLINK-61 3.7 03:50:46 18° WNW 03:53:36 66° N 03:57:29 10° E
Okean 2 Rocket 3.1 03:49:12 10° NNW 03:53:41 65° W 03:58:09 10° S
Landsat 5 3.9 03:52:25 25° SW 03:53:53 34° W 03:57:28 10° NNW
Cosmos 1975 3.6 03:51:05 10° NNW 03:54:43 33° W 03:56:22 23° SW
Sich 1 Rocket 4.0 03:50:56 10° NNW 03:55:02 39° W 03:57:57 17° SSW
Cosmos 2151 Rocket 3.5 03:50:45 10° N 03:55:11 87° W 03:59:35 10° S
Cosmos 2263 Rocket 4.1 03:50:46 10° SSE 03:55:30 28° ESE 04:00:17 10° NE
STARLINK-1034 3.6 03:53:31 26° WSW 03:55:48 78° SSE 03:59:57 10° ENE
Cosmos 1356 3.3 03:52:48 10° NNW 03:56:14 75° W 03:59:39 10° S
PSLV R/B 4.3 03:52:20 10° NNE 03:56:38 54° E 04:00:56 10° S
BREEZE-M DEB (TANK) 2.5 03:53:52 17° W 03:56:59 61° SSW 03:59:21 10° ESE
Cosmos 1689 Rocket 3.1 03:54:10 10° SSE 03:57:05 49° ENE 04:00:00 10° N
STARLINK-1029 3.3 03:56:29 20° WNW 03:58:30 60° N 04:01:37 10° E
STARLINK-1021 3.8 03:55:40 18° W 03:58:36 68° N 04:02:45 10° E
STARLINK-34 3.3 03:57:48 18° WNW 04:00:02 64° N 04:03:13 10° E
STARLINK-1068 3.6 03:58:17 23° WSW 04:00:46 81° SSE 04:04:56 10° ENE
STARLINK-62 3.2 03:58:43 17° WNW 04:00:59 64° N 04:04:09 10° E
STARLINK-22 3.1 04:00:52 16° WNW 04:03:19 74° NNE 04:06:35 10° E
STARLINK-1019 3.9 04:00:26 17° W 04:03:35 67° N 04:07:43 10° E
Cosmos 2297 Rocket 2.7 04:00:14 19° WSW 04:04:00 46° NW 04:09:29 10° NNE
STARLINK-81 3.8 04:01:22 17° W 04:04:26 66° N 04:08:27 10° E
CZ-2C R/B 3.0 04:00:44 10° N 04:04:43 57° WNW 04:07:46 16° SSW
Cosmos 1269 Rocket 4.1 03:59:51 10° NNW 04:05:03 56° WSW 04:10:14 10° S
STARLINK-54 3.8 04:03:07 16° W 04:06:19 66° N 04:10:20 10° E
STARLINK-1023 3.9 04:03:08 15° W 04:06:31 67° N 04:10:43 10° E
STARLINK-77 3.8 04:04:32 15° W 04:07:44 66° N 04:11:46 10° E
STARLINK-1012 3.9 04:05:13 15° W 04:08:35 67° N 04:12:43 10° E
Cosmos 1092 Rocket 4.5 04:02:37 10° S 04:08:53 65° E 04:15:07 10° NNE
STARLINK-25 3.8 04:06:07 15° W 04:09:24 66° N 04:13:25 10° E
STARLINK-1060 3.6 04:07:50 19° WSW 04:10:43 88° SSE 04:14:52 10° ENE
STARLINK-71 3.8 04:07:53 14° W 04:11:18 66° N 04:15:19 10° E
USA 238 DEB 3.9 04:06:24 17° WSW 04:11:45 64° NW 04:18:44 10° NE
OPS 6432 4.4 04:09:26 20° SW 04:11:51 70° NW 04:14:55 10° NE
USA 238 3.9 04:06:29 17° WSW 04:11:51 65° NW 04:18:51 10° NE
ATLAS CENTAUR R/B 1.2 04:11:35 23° SSW 04:12:28 42° SE 04:14:58 10° ENE
STARLINK-79 3.8 04:09:18 14° W 04:12:43 66° N 04:16:44 10° E
Cosmos 2219 4.2 04:09:46 16° WSW 04:13:48 34° NW 04:19:02 10° NNE
COBE Rocket 4.3 04:09:31 10° SSW 04:13:56 38° W 04:18:19 10° NNW
Meteor 2-4 Rocket 3.8 04:08:13 10° SSW 04:14:08 70° WNW 04:20:00 10° N
STARLINK-78 3.8 04:10:54 13° W 04:14:23 66° N 04:18:24 10° E
STARLINK-1030 3.6 04:12:38 18° WSW 04:15:43 90° NNW 04:19:53 10° ENE
STARLINK-57 3.8 04:12:35 13° W 04:16:10 66° N 04:20:11 10° E
STARLINK-48 3.4 04:12:52 10° WNW 04:16:47 86° SSW 04:20:42 10° ESE
STARLINK-1043 4.5 04:14:14 14° SW 04:17:30 41° SSE 04:21:25 10° ENE
STARLINK-49 3.8 04:14:06 12° W 04:17:43 66° N 04:21:45 10° E
STARLINK-1065 4.5 04:14:49 14° SW 04:18:06 42° SSE 04:22:01 10° ENE
USA 234 3.3 04:11:47 10° SE 04:18:13 59° SW 04:24:42 10° WNW
STARLINK-1026 3.9 04:14:46 12° W 04:18:33 66° N 04:22:41 10° E
Cosmos 2251 Rocket 4.0 04:13:27 10° NNW 04:18:49 66° ENE 04:24:06 10° SE
STARLINK-27 3.8 04:15:40 12° W 04:19:21 66° N 04:23:23 10° E
STARLINK-1020 3.6 04:17:26 16° WSW 04:20:43 87° NNW 04:24:53 10° ENE
STARLINK-74 3.8 04:17:16 12° W 04:21:02 66° N 04:25:03 10° E
Cosmos 1125 Rocket 4.0 04:18:02 14° SW 04:22:22 47° WNW 04:27:32 10° NNE
Nadezhda 4 Rocket 4.0 04:16:20 10° SSW 04:22:38 72° WNW 04:29:00 10° N
STARLINK-39 3.8 04:18:51 11° W 04:22:41 66° N 04:26:42 10° E
STARLINK-1013 3.9 04:19:33 11° W 04:23:32 66° N 04:27:40 10° E
STARLINK-41 2.8 04:20:48 10° WNW 04:23:56 88° SSW 04:27:08 10° ESE
STARLINK-31 3.8 04:20:28 11° W 04:24:22 66° N 04:28:23 10° E
STARLINK-1052 3.6 04:22:12 14° WSW 04:25:41 84° NNW 04:29:51 10° ENE
STARLINK-69 3.8 04:22:12 10° W 04:26:13 66° N 04:30:14 10° E
STARLINK-1007 3.9 04:22:08 10° W 04:26:18 67° N 04:30:30 10° E
ADEOS II 3.5 04:22:36 10° N 04:26:29 21° NW 04:30:05 11° WSW
STARLINK-1063 4.3 04:23:48 12° SW 04:27:25 47° SSE 04:31:24 10° ENE
STARLINK-21 3.8 04:23:40 10° W 04:27:41 66° N 04:31:43 10° E
STARLINK-1009 3.9 04:24:24 10° W 04:28:33 67° N 04:32:41 10° E
MSX 3.8 04:23:24 10° NNE 04:29:11 73° WNW 04:34:56 10° SSW
STARLINK-45 3.8 04:25:32 10° W 04:29:33 66° N 04:33:35 10° E
STARLINK-42 2.9 04:27:10 10° WNW 04:30:23 76° SSW 04:33:36 10° ESE
Cosmos 2227 Rocket 3.1 04:26:11 13° WSW 04:30:47 35° NW 04:36:00 10° NNE
STARLINK-70 3.8 04:27:07 10° W 04:31:08 66° N 04:35:09 10° E
STARLINK-1064 4.2 04:28:35 11° SW 04:32:22 50° SSE 04:36:23 10° ENE
STARLINK-76 3.8 04:28:40 10° W 04:32:42 66° N 04:36:43 10° E
STARLINK-80 3.6 04:29:33 10° WNW 04:33:15 52° SSW 04:36:58 10° SE
STARLINK-1015 3.9 04:29:21 10° W 04:33:30 67° N 04:37:38 10° E
STARLINK-23 3.8 04:30:20 10° W 04:34:22 67° N 04:38:22 10° E
STARLINK-1027 3.8 04:31:33 12° W 04:35:33 79° NNW 04:39:50 10° ENE
STARLINK-1033 3.7 04:31:46 12° W 04:35:38 80° NNW 04:39:48 10° ENE
NOSS 3-2 (A) 4.0 04:30:14 11° WSW 04:35:47 52° NNW 04:42:34 10° NE
STARLINK-32 3.8 04:31:58 10° W 04:35:59 67° N 04:40:00 10° E
STARLINK-64 3.3 04:32:35 10° WNW 04:36:10 82° NNE 04:39:44 10° ESE
Cosmos 1943 3.2 04:30:34 10° NNW 04:36:18 81° WSW 04:42:00 10° SSE
STARLINK-1041 4.1 04:33:21 10° SW 04:37:18 53° SSE 04:41:22 10° ENE
STARLINK-40 3.8 04:33:37 10° W 04:37:38 67° N 04:41:40 10° E
STARLINK-1016 3.9 04:34:23 10° W 04:38:31 67° N 04:42:39 10° E
STARLINK-44 3.8 04:35:17 10° W 04:39:18 67° N 04:43:19 10° E
CENTAUR R/B 2.7 04:33:22 10° SW 04:39:32 73° NW 04:46:55 10° NE
Okean 1 Rocket 3.0 04:35:31 10° NNW 04:39:52 68° W 04:44:13 10° S
IDEFIX/ARIANE 42P 3.1 04:35:37 10° N 04:40:28 41° WNW 04:45:20 10° SW
Cosmos 1766 4.1 04:37:06 10° N 04:40:57 56° ENE 04:44:45 10° SSE
STARLINK-37 3.8 04:37:04 10° WNW 04:41:06 68° N 04:45:07 10° E
STARLINK-1038 4.1 04:38:13 10° SW 04:42:16 56° SSE 04:46:21 10° ENE
STARLINK-36 3.8 04:38:36 10° WNW 04:42:38 68° N 04:46:39 10° E
STARLINK-1031 3.8 04:39:02 10° W 04:43:17 75° NNW 04:47:34 10° ENE
STARLINK-1008 3.9 04:39:22 10° W 04:43:31 68° N 04:47:39 10° E
CZ-4B R/B 2.7 04:40:43 10° SSW 04:43:33 23° W 04:46:23 10° NW
STARLINK-68 3.8 04:40:27 10° WNW 04:44:29 69° N 04:48:30 10° E
STARLINK-1024 3.7 04:41:27 10° W 04:45:37 76° N 04:49:46 10° ENE
STARLINK-63 3.8 04:42:01 10° WNW 04:46:03 69° N 04:50:04 10° E
STARLINK-1046 4.0 04:43:10 10° SW 04:47:14 59° SSE 04:51:20 10° ENE
ARIANE 5 R/B 4.1 04:43:29 10° N 04:47:15 20° NW 04:51:00 10° WSW
STARLINK-35 3.8 04:43:34 10° WNW 04:47:37 69° N 04:51:38 10° E
Cosmos 1975 Rocket 4.4 04:44:14 10° SSE 04:48:22 44° E 04:52:35 10° NNE
CZ-2C R/B 2.2 04:44:03 10° NNE 04:48:39 79° WNW 04:53:14 10° SSW
STARLINK-51 3.8 04:45:14 10° WNW 04:49:16 69° N 04:53:17 10° E
STARLINK-1035 3.8 04:46:26 10° W 04:50:35 74° N 04:54:44 10° ENE
STARLINK-30 3.8 04:46:52 10° WNW 04:50:54 69° N 04:54:56 10° E
STARLINK-1039 3.9 04:48:07 10° SW 04:52:13 62° SSE 04:56:20 10° ENE
STARLINK-72 3.8 04:48:34 10° WNW 04:52:35 70° N 04:56:38 10° E
Meteor 1-4 Rocket 3.3 04:49:30 10° SW 04:53:02 37° WNW 04:56:34 10° N
STARLINK-1025 3.9 04:49:21 10° WNW 04:53:30 70° N 04:57:38 10° E
Cosmos 1553 Rocket 4.2 04:47:19 10° N 04:53:39 82° E 05:00:02 10° SSE
Cosmos 389 Rocket 4.2 04:51:26 10° WSW 04:53:58 18° WNW 04:56:30 10° NNW
STARLINK-50 3.8 04:50:11 10° WNW 04:54:14 70° N 04:58:15 10° E
STARLINK-1032 3.8 04:51:26 10° W 04:55:35 72° N 04:59:44 10° ENE
STARLINK-59 3.8 04:51:58 10° WNW 04:56:00 71° N 05:00:02 10° E
